{"data":{"norad_id":53570,"epoch":"2026-05-25T04:16:41.379744Z","epoch_age_seconds":52961,"freshness":"FRESH","line1":"1 53570U 22101AV  26145.17825671  .00001223  00000+0  94945-4 0  9993","line2":"2 53570  53.2146  70.6583 0001343  69.6658 290.4478 15.08837883208682","mean_motion":15.08837883,"eccentricity":0.0001343,"inclination_deg":53.2146,"raan_deg":70.6583,"arg_perigee_deg":69.6658,"mean_anomaly_deg":290.4478,"bstar":9.4945e-5,"rev_number":20868,"period_min":95.437688583009,"perigee_km":538.82078758848,"apogee_km":540.67893199902,"semimajor_km":6917.8868597938,"source":"CELESTRAK","updated_at":"2026-05-25T13:38:17.470860Z"}}